OAO 2

Satellite information

Favourite Embed

Satellite Type and Status

PAYLOADIN ORBIT

Key statistics

Satellite OAO 2 at a glance.

Uptime

20726

Days in orbit

Revolutions

≈ 14.5

Per day

Orbit

LEO

Low Earth Orbit

Inclination

35.0

Latest

Satellite identification and parameters

Extended collection of information and parameters for OAO 2.

Object identification

Identified? True

Debris? False

Object name: OAO 2

International designator: 1968-110A

Object number (NORAD): 3597

Object ID (CCSDS): 3597

Country: UNITED STATES OF AMERICA (US)

Current information (Y/N): Y

RCS size: LARGE

Orbital parameters

Period: 99.506 minutes

Inclination: 34.9921 deg

SMA: 7113.093 km

Apoapsis: 738.735 km

Periapsis: 731.182 km

RAAN: 226.1452 deg

Eccentricy: 0.00053088

Argument of periapsis: 147.9662 deg

Mean anomaly: 212.1352 deg

Mean motion: 14.47154812 rev/day

Mean motion (dot): 0.0000043 rev/day2

B* drag term: 0.00012135286 1/REarth

Two-line elements (TLE)

Creation date: Sept. 4, 2025, 10:13 a.m.

Reference frame: TEME

Reference center: EARTH

Epoch: Sept. 4, 2025, 5:33 a.m. UTC

TLE line 0: 0 OAO 2

TLE line 1: 1 03597U 68110A 25247.23125694 .00000430 00000-0 12135-3 0 9994

TLE line 2: 2 03597 34.9921 226.1452 0005309 147.9662 212.1352 14.47154812992102

Live tracking on map

Real-time ground track for satellite OAO 2.

In-orbit conjunctions

A list of the most updated potential collisions computed for object OAO 2.

Target Orbit TCA Probability of collision Miss distance Type
COSMOS 2251 DEB LEO 2025-03-16 09:04:03 0.0007778558 795.0 (m) DEBRIS
NOAA 17 DEB SSO 2025-01-07 10:23:24 0.0001505865 159.0 (m) DEBRIS
SL-8 DEB * LEO 2025-01-06 17:32:41 0.000211758 354.0 (m) DEBRIS
CZ-6A DEB SSO 2024-11-27 11:12:58 0.0001362824 89.0 (m) DEBRIS
CZ-6A DEB SSO 2024-09-24 11:39:30 0.0002163734 292.0 (m) DEBRIS

Associated space launch

OAO 2 (Orbiting Astronomical Observatory), also known as Stargazer, was one of a series of automated astronomical observatories that was ground controllable in orientation and was placed in a low-earth orbit.

OAO 2 was lifted into orbit during the mission ‘Atlas SLV-3C Centaur | OAO 2’, on board a Atlas SLV-3C Centaur space rocket.

The launch took place on Dec. 7, 1968, 8:40 a.m. from Launch Complex 36B.

For more information about the launch, click the button.

Launch to space Atlas SLV-3C Centaur | OAO 2
Atlas SLV-3C Centaur | OAO 2

Agency: N/A

Status: Launch Successful

Launch date: Dec. 7, 1968, 8:40 a.m. UTC

Rocket: Atlas SLV-3C Centaur

Launch pad: Launch Complex 36B

Location: Cape Canaveral SFS, FL, USA

...

Latest news about this satellite

There are no fresh news available about this satellite. Check back as we update our databases every day.


Newsletter sign-up

Weekly statistics, charts and insights to help you stay on top of the space industry.